FW4043 Weather Reports


Display with metric or nautical units.
time (UTC)temp
F
wind
direction
speed
MPH
gust
MPH
rain 1hr
in
rain 24hr
in
rain mn
in
humidity
%
barometer
mb
20260905010012 84 132 3.0 5.0 0.00 0.68 0.68 83 1014.0
20260905004511 85 132 4.0 9.0 0.00 0.68 0.68 82 1014.0
20260905003056 86 147 6.0 10.0 0.00 0.68 0.68 82 1013.7
20260905001605 86 127 7.0 10.0 0.00 0.68 0.68 81 1013.6
20260905001505 86 132 7.0 10.0 0.00 0.68 0.68 81 1013.6
20260905000053 87 132 5.0 12.0 0.00 0.68 0.68 81 1013.5
20260904234601 87 125 7.0 12.0 0.00 0.68 0.68 81 1013.6
20260904233100 87 98 8.0 11.0 0.00 0.68 0.68 81 1013.5
20260904233003 87 121 7.0 9.0 0.00 0.68 0.68 82 1013.6
20260904231511 86 115 4.0 8.0 0.00 0.68 0.68 82 1013.7
20260904230016 85 123 5.0 8.0 0.00 0.68 0.68 82 1013.5
20260904224523 85 128 5.0 8.0 0.00 0.68 0.68 82 1013.7
20260904223038 85 132 6.0 10.0 0.00 0.68 0.68 82 1013.7
20260904221549 86 126 7.0 11.0 0.00 0.68 0.68 82 1013.7
20260904220028 88 123 9.0 13.0 0.00 0.68 0.68 79 1013.5
20260904214532 89 113 6.0 8.0 0.00 0.68 0.68 79 1013.7
20260904213041 89 169 5.0 11.0 0.00 0.68 0.68 80 1013.9
20260904211542 88 205 4.0 9.0 0.00 0.68 0.68 81 1014.0
20260904210042 88 121 4.0 10.0 0.00 0.68 0.68 85 1014.3
20260904204553 87 127 5.0 9.0 0.00 0.68 0.68 84 1014.4
20260904203055 87 102 5.0 7.0 0.00 0.68 0.68 87 1014.7
20260904201505 87 116 5.0 9.0 0.00 0.68 0.68 88 1014.7
20260904200010 86 113 3.0 7.0 0.00 0.69 0.68 89 1015.0
20260904194513 85 97 2.0 7.0 0.00 0.69 0.68 89 1015.3
20260904193023 85 119 2.0 6.0 0.00 0.69 0.68 90 1015.3
20260904191531 84 137 0.0 5.0 0.00 0.69 0.68 91 1015.4
20260904190044 83 32 0.0 5.0 0.00 0.69 0.68 91 1015.6
20260904184552 82 75 0.0 5.0 0.01 0.78 0.68 91 1015.9
20260904183055 82 70 2.0 5.0 0.01 0.78 0.68 91 1016.3
20260904181612 81 18 4.0 9.0 0.01 0.78 0.68 91 1016.6
20260904181518 81 18 4.0 9.0 0.01 0.78 0.68 91 1016.7
20260904180055 80 117 4.0 10.0 0.01 0.78 0.68 91 1016.6
20260904174557 79 139 4.0 8.0 0.00 0.88 0.67 91 1016.8
20260904173007 79 100 5.0 7.0 0.01 0.88 0.67 91 1016.9
20260904171529 79 122 6.0 9.0 0.05 0.88 0.67 92 1016.8
20260904170021 78 57 0.0 0.0 0.35 0.88 0.67 90 1016.7
20260904164525 77 57 3.0 6.0 0.66 0.88 0.67 90 1016.8
20260904163017 77 90 3.0 8.0 0.66 0.87 0.66 90 1016.9
20260904161523 78 105 2.0 9.0 0.62 0.83 0.62 90 1017.1
20260904160030 80 105 8.0 13.0 0.32 0.53 0.34 90 1017.3
20260904154533 83 83 2.0 11.0 0.01 0.22 0.01 88 1016.5
20260904153023 86 207 0.0 10.0 0.00 0.21 0.00 88 1016.1
20260904151533 86 230 5.0 10.0 0.00 0.21 0.00 87 1015.8
20260904150033 86 179 2.0 11.0 0.00 0.21 0.00 88 1015.9
20260904144537 86 121 7.0 12.0 0.00 0.21 0.00 87 1015.8
20260904143037 86 167 2.0 10.0 0.00 0.21 0.00 89 1015.8
20260904141544 85 121 5.0 9.0 0.00 0.21 0.00 90 1015.7
20260904140045 85 159 6.0 9.0 0.00 0.21 0.00 90 1015.6
20260904134557 84 122 5.0 8.0 0.00 0.21 0.00 92 1015.7
20260904133100 83 124 4.0 7.0 0.00 0.21 0.00 92 1015.6
20260904131552 82 36 0.0 1.0 0.00 0.21 0.00 92 1015.6
20260904130053 81 267 0.0 1.0 0.00 0.21 0.00 92 1015.4
20260904130001 81 267 0.0 1.0 0.00 0.21 0.00 92 1015.4
20260904124602 80 74 0.0 0.0 0.00 0.21 0.00 92 1015.2
20260904124505 80 74 0.0 0.0 0.00 0.21 0.00 92 1015.2
20260904123007 80 74 0.0 0.0 0.00 0.21 0.00 92 1015.0
20260904121553 80 74 0.0 0.0 0.00 0.21 0.00 92 1014.9
20260904120101 80 74 0.0 0.0 0.00 0.21 0.00 92 1014.9
20260904114506 80 74 0.0 4.0 0.00 0.21 0.00 92 1014.8
20260904113012 80 105 0.0 1.0 0.00 0.21 0.00 92 1014.9
20260904111518 80 103 5.0 7.0 0.00 0.21 0.00 92 1014.7
20260904110024 80 104 6.0 9.0 0.00 0.21 0.00 92 1014.6
20260904104554 80 67 0.0 4.0 0.00 0.21 0.00 92 1014.5
20260904103044 80 69 0.0 1.0 0.00 0.21 0.00 92 1014.3
20260904101545 80 69 0.0 5.0 0.00 0.21 0.00 92 1014.2
20260904100107 80 97 1.0 4.0 0.00 0.21 0.00 92 1014.3
20260904094510 80 103 0.0 5.0 0.00 0.21 0.00 92 1014.3
20260904093012 80 94 1.0 9.0 0.00 0.21 0.00 92 1014.0
20260904091522 81 116 7.0 9.0 0.00 0.21 0.00 92 1013.9
20260904090027 81 124 8.0 11.0 0.00 0.21 0.00 92 1014.1
20260904084532 80 112 8.0 10.0 0.00 0.21 0.00 92 1014.1
20260904083036 81 125 7.0 9.0 0.00 0.21 0.00 92 1014.2
20260904081547 80 119 8.0 10.0 0.00 0.21 0.00 92 1014.2
20260904080123 80 114 7.0 10.0 0.00 0.21 0.00 92 1014.2
20260904074608 80 113 7.0 9.0 0.00 0.21 0.00 92 1014.1
20260904074508 80 122 7.0 9.0 0.00 0.21 0.00 92 1014.2
20260904073049 80 116 6.0 9.0 0.00 0.21 0.00 92 1014.3
20260904071601 80 123 8.0 10.0 0.00 0.21 0.00 92 1014.2
20260904070100 80 111 7.0 11.0 0.00 0.21 0.00 92 1014.4
20260904070002 80 113 7.0 11.0 0.00 0.21 0.00 92 1014.4
20260904064509 80 118 7.0 10.0 0.00 0.21 0.00 92 1014.4
20260904063016 80 127 7.0 9.0 0.00 0.21 0.00 92 1014.3
20260904061557 80 125 6.0 8.0 0.00 0.21 0.00 92 1014.5
20260904060010 81 139 6.0 13.0 0.00 0.21 0.00 92 1014.7
20260904054520 81 130 4.0 8.0 0.00 0.21 0.00 92 1014.8
20260904053033 80 126 4.0 6.0 0.00 0.21 0.00 91 1014.8
20260904051526 80 128 4.0 6.0 0.00 0.21 0.00 91 1014.6
20260904050036 80 121 4.0 7.0 0.00 0.21 0.00 91 1014.7
20260904044531 80 134 4.0 8.0 0.00 0.21 0.21 91 1014.6
20260904043038 81 135 3.0 6.0 0.00 0.21 0.21 91 1014.6
20260904041546 81 161 5.0 10.0 0.00 0.21 0.21 91 1014.6
20260904040055 81 148 5.0 9.0 0.00 0.21 0.21 91 1014.7
20260904034505 81 173 7.0 10.0 0.00 0.21 0.21 91 1014.7
20260904033009 81 145 6.0 9.0 0.00 0.21 0.21 91 1014.7
20260904031516 81 131 5.0 8.0 0.00 0.21 0.21 91 1014.7
20260904030025 81 124 5.0 8.0 0.00 0.21 0.21 91 1014.7
20260904024535 81 132 5.0 8.0 0.00 0.21 0.21 91 1014.7
20260904023055 81 138 4.0 6.0 0.00 0.21 0.21 91 1014.6
20260904021559 81 133 4.0 6.0 0.00 0.21 0.21 91 1014.4
20260904020057 81 116 5.0 9.0 0.00 0.21 0.21 90 1014.2
20260904014508 81 106 6.0 7.0 0.00 0.21 0.21 90 1014.2
20260904013016 81 112 6.0 8.0 0.00 0.21 0.21 90 1014.0
20260904011521 81 107 4.0 6.0 0.00 0.21 0.21 90 1013.9